Find Starlink 38309

NORAD ID: 100381 Int'l Des: 2026-190 Owner: SPXS Country: US Constellation: starlink operational

Current View

Loading 3D Globe...

About Starlink 38309

Starlink 38309 (NORAD 100381) is a starlink constellation satellite launched Aug 19, 2026 by SPXS of US. with a mass of 575.00 kg.

Upcoming Passes

Passes for default location (London). Set your location on the main map for personalized predictions.

Altitude History

Loading altitude history...

Two-Line Element Set

1 A0381U 26190L 26254.54310502 .00158863 00000-0 10435-2 0 9995
2 A0381 97.2801 108.4292 0001465 86.1318 274.0115 15.75250162 4963
Epoch: Sep 11, 2026 • Age: 10 hours

Current Status

Altitude 351.9 km
Apogee / Perigee N/A
Velocity 7.70 km/s
Sub-Earth Point 54.85°N, 32.35°W
Launch Date Aug 19, 2026
Age 23 days
Type internet

Technical Details

Classification Payload
Mass 575.00 kg
Dry Mass 530.00 kg
Total Mass 575.00 kg
Length 0.30 m
Diameter 4.10 m
Span 29.00 m
Shape Box + pan
Manufacturer SPXS
Bus Type Starlink V2MO
Phase Status In Orbit
Owner/State SPXS/US

Most Searched